Location: LewisvilleTX
(33.0462°N, 96.9942°W)
Time: 15:02:54
(UTC+00:00)

MANDRAKE 2 BAKER - Pass Details

Date: 04 June 2022
Orbit: 516 x 531 km, 97.6° (Epoch: 03 July)

Event Time Altitude Azimuth Distance (km) Brightness Sun altitude
Exits shadow 08:30:59 23° 333° (NNW) 1,146 ? -27.0°
Drops below altitude 10° 08:32:34 10° 340° (NNW) 1,771 ? -26.9°
Sets 08:34:42 0° 344° (NNW) 2,661 ? -26.6°
